Regional Weather Roundup
Issued by NWS

Home | Current Version | Previous Version | Graphics & Text | Print | Product List | Glossary Off
Versions: 1 2 3 4 5 6 7 8 9 10 11 12 13 14 15 16 17 18 19 20 21 22 23 24 25 26 27 28 29 30 31 32 33 34 35 36 37 38 39 40 41 42 43 44 45 46 47 48 49 50

000
ASUS43 KDTX 300801
RWRMI
MICHIGAN HOURLY REGIONAL WEATHER ROUNDUP
NATIONAL WEATHER SERVICE DETROIT/PONTIAC MI
400 AM EDT THU JUL 30 2015

NOTE: "FAIR" INDICATES FEW OR NO CLOUDS BELOW 12,000 FEET WITH NO
SIGNIFICANT WEATHER AND/OR OBSTRUCTION TO VISIBILITY.

MIZ047>049-052>055-059>063-066>070-074>076-081>083-300900-
SOUTHEAST LOWER MICHIGAN

CITY           SKY/WX    TMP DP  RH WIND       PRES   REMARKS
ADRIAN         PTCLDY    63  57  81 W5        29.96S
ALMA           CLEAR     63  58  84 SW5       29.92R
ANN ARBOR      PTCLDY    61  56  83 W7        29.94R
BAD AXE        CLEAR     62  57  83 CALM      29.88S
CARO           CLEAR     62  57  86 SW3       29.89S
DETROIT CITY   PTCLDY    68  57  68 W6        29.91S
DETROIT        MOCLDY    66  58  75 SW5       29.93S
FLINT          CLEAR     68  57  68 W8        29.92S
GROSSE ILE     PTCLDY    68  61  77 W5        29.91S
HILLSDALE      CLEAR     67  57  71 W8        29.98S
HOWELL         CLEAR     64  57  80 W6        29.94S

CITY           SKY/WX    TMP DP  RH WIND       PRES   REMARKS
JACKSON        CLEAR     64  56  75 W6        29.96R
LAMBERTVILLE   MOCLDY    66  59  78 CALM      29.95S
LANSING        CLEAR     66  57  72 W8        29.94S
LAPEER         FAIR      66  57  74 W5        29.91S
MASON          CLEAR     64  56  75 W5        29.95S
MONROE         MOCLDY    64  59  85 W3        29.93R
MT. CLEMENS    CLEAR     67  59  75 W8        29.88S
PONTIAC        CLEAR     67  57  70 W9        29.92R
PORT HOPE        N/A     66  60  81 SW6       29.84S
PORT HURON     CLEAR     59  57  94 CALM      29.89S
TRI CITIES     CLEAR     66  57  72 SW8       29.90S
MIDLAND        FAIR      65  55  71 W3        29.88S
TROY           PTCLDY    67  59  74 MISG      29.93S
SAGINAW HB     CLEAR     64  57  77 SW6       29.89S
$$
MIZ043>046-050>051-056>058-064>065-071>073-077>080-300900-
SOUTHWEST LOWER MICHIGAN

CITY           SKY/WX    TMP DP  RH WIND       PRES   REMARKS
BATTLE CREEK   CLEAR     66  57  72 W6        29.97S
BENTON HARBOR  CLEAR     71  62  73 W12       29.98S
BIG RAPIDS     CLEAR     66  56  70 W8        29.91S
COLDWATER      CLEAR     61  56  82 SW3       29.98S
FREMONT        FAIR      66  56  70 W6        29.92S
HOLLAND        CLEAR     72  59  63 W9        29.96S
GRAND RAPIDS   CLEAR     66  59  78 W7        29.95R
IONIA          FAIR      64  58  82 W8        29.93S
KALAMAZOO      CLEAR     67  57  70 W7        29.97S
LUDINGTON      CLEAR     72  61  67 W9        29.90S
MARSHALL       CLEAR     62  56  82 CALM      29.96S
MOUNT PLEASANT CLEAR     67  57  70 W5        29.89S
MUSKEGON       CLEAR     74  48  39 W15G24    29.93S
SOUTH HAVEN    CLEAR     71  62  71 W8        29.97S
$$
MIZ016>042-300900-
NORTHERN LOWER MICHIGAN

CITY           SKY/WX    TMP DP  RH WIND       PRES   REMARKS
ALPENA         MOCLDY    67  55  65 SW6       29.81F
BEAVER ISLAND  PTCLDY    69  61  75 W15G23    29.79S
BELLAIRE       MOCLDY    73  56  53 SW5       29.82S
CADILLAC       CLEAR     67  55  66 W9        29.89S
CHARLEVOIX     CLEAR     71  60  67 SW14G24   29.83S
FRANKFORT      CLEAR     71  60  68 W9G18     29.87R
GAYLORD        CLEAR     65  57  75 SW7       29.84F
GRAYLING       CLEAR     65  56  73 SW6       29.87S
HARBOR SPRINGS CLEAR     71  63  75 W8G17     29.79S
HOUGHTON LAKE  CLEAR     69  58  67 W12       29.87F
MANISTEE       CLEAR     72  57  60 W12G21    29.88S
OSCODA         CLEAR     64  55  71 SW9       29.83S
PELLSTON       CLEAR     72  59  63 W9        29.79F
ROGERS CITY    PTCLDY    67  58  73 SW7       29.80S
TRAVERSE CITY  CLEAR     71  56  58 SW7       29.83S
$$
MIZ007>008-015-300900-
EASTERN UPPER MICHIGAN

CITY           SKY/WX    TMP DP  RH WIND       PRES   REMARKS
KINROSS        MOCLDY    68  57  68 SW6       29.74F
MACKINAC ISLAN PTCLDY    70  62  76 SW13G20   29.76S
MUNISING         N/A     70  55  59 SW10      29.75S
$$
MIZ004>006-011>014-085-300900-
CENTRAL UPPER MICHIGAN

CITY           SKY/WX    TMP DP  RH WIND       PRES   REMARKS
MANISTIQUE     CLEAR     68  55  64 W6        29.78R
ESCANABA       CLEAR     66  54  63 W10       29.80S
MENOMINEE      CLEAR     66  54  63 W6        29.85S
SAWYER-GWINN   CLEAR     65  53  65 W12       29.79S
$$
MIZ001>003-009>011-084-300900-
WESTERN UPPER MICHIGAN

CITY           SKY/WX    TMP DP  RH WIND       PRES   REMARKS
IRON MOUNTAIN  CLEAR     67  53  61 W8        29.83S
HOUGHTON       PTCLDY    67  52  58 W20G31    29.73F
COPPER HARBOR    N/A     69  53  56 NW16G35   29.69S
IRONWOOD       CLEAR     64  54  68 W15       29.84R
$$

ABBREVIATIONS USED IN REMARKS
   TC - TEMPERATURE IN CELSIUS
  WCI - WIND CHILL INDEX
   HX - HEAT INDEX
  VSB - VISIBILITY




USA.gov is the U.S. government's official web portal to all federal, state and local government web resources and services.